Wind_Speed
48 51 49 47 30 39 26 36 31 26 25 24 25 23 23 23 24 24 27 33 35 39 40 39 38 37 32 31 28 26 25 22 22 19 25 22 27 27 28 27 29 29 31
45 46 40 41 42 35 23 28 26 23 22 23 22 21 22 24 26 29 31 33 35 36 36 34 33 32 32 28 26 26 25 24 23 27 25 28 24 25 25 27 30 29 29
16 9 13 18 20 18 16 21 20 19 19 21 20 21 25 28 31 30 32 35 35 31 31 31 31 30 29 26 27 26 26 26 25 28 30 28 26 24 18 21 27 30 29
8 11 10 9 10 16 16 16 17 20 21 17 24 28 27 28 29 32 30 28 28 28 28 29 30 29 31 27 25 28 28 27 25 28 28 29 25 22 21 28 30 27 25
10 12 11 10 11 12 17 18 17 17 16 18 27 26 26 28 29 26 28 28 28 29 30 31 30 35 32 27 25 25 26 25 23 26 25 26 24 24 26 27 26 24 29
12 13 13 13 15 15 16 18 22 20 20 20 21 24 27 26 24 24 25 29 31 31 32 30 30 28 27 26 26 23 24 25 25 25 27 28 26 27 29 29 31 31 30
10 16 19 21 24 22 21 20 22 12 13 18 21 22 23 23 23 25 28 31 33 33 32 28 26 17 25 28 29 26 26 28 29 29 28 26 30 30 32 33 31 35 35
20 20 23 25 20 25 18 19 16 24 17 18 20 18 22 25 24 29 33 35 36 34 28 33 25 22 27 29 28 27 26 26 27 28 29 28 29 31 33 34 34 35 35
32 20 17 17 21 20 23 17 15 16 17 18 19 20 25 31 34 35 35 35 35 33 33 26 27 25 33 29 27 26 25 23 25 25 24 25 25 24 25 24 21 26 32
15 14 18 13 11 11 13 14 16 18 18 19 25 28 30 31 34 32 32 31 29 25 25 19 29 32 30 30 31 25 23 22 23 22 21 19 21 22 21 19 14 16 19
14 19 12 11 11 13 15 17 20 21 25 29 32 33 31 23 27 28 30 29 27 24 23 20 20 24 27 29 27 22 23 24 21 20 16 18 19 21 20 18 15 18 20
4 9 13 13 11 16 16 20 24 28 31 31 27 28 21 25 20 21 21 21 18 16 14 14 16 19 19 19 22 24 20 20 15 16 18 20 22 27 26 23 22 23 23
11 18 20 22 23 19 23 32 27 28 34 22 23 21 18 14 20 19 18 18 18 19 16 16 16 15 15 14 17 17 20 14 13 19 19 24 28 27 21 23 21 23 18
14 16 20 23 23 26 33 30 33 26 16 26 15 13 11 15 17 16 19 20 20 18 17 15 17 15 13 21 20 22 22 23 22 23 23 23 21 19 20 22 22 20 17
15 16 19 24 25 30 24 24 25 20 18 11 16 12 15 15 16 18 20 21 20 17 14 7 12 14 16 18 18 20 20 21 21 22 22 20 18 18 20 22 22 22 17
17 20 26 23 15 22 16 18 17 14 8 6 7 9 9 11 14 19 23 23 17 17 16 18 17 18 19 20 20 19 15 17 20 24 16 14 13 17 20 21 18 15 13
24 24 19 18 15 9 12 8 8 8 8 8 9 9 11 14 17 18 24 23 26 21 20 20 19 19 19 18 17 16 16 17 19 21 16 13 19 18 16 17 14 10 10
10 15 13 8 6 5 4 6 13 14 12 13 13 11 12 16 18 16 23 22 15 16 21 20 19 21 18 17 18 15 16 16 19 18 14 12 24 19 19 10 6 7 7
7 6 4 3 3 2 1 1 0 5 8 12 16 17 15 18 17 17 22 24 15 15 18 19 21 21 19 21 20 18 17 18 18 16 14 20 21 19 7 7 5 6 7
6 6 4 5 4 5 6 6 8 8 9 12 16 17 18 18 12 15 18 22 23 16 18 16 18 21 19 19 18 21 19 20 16 14 13 25 19 10 16 6 5 10 6
10 10 7 3 2 4 13 9 8 12 12 14 15 12 12 12 11 14 15 24 25 24 23 16 15 19 18 17 17 19 20 21 19 14 11 22 23 16 21 16 13 9 4
6 10 10 12 10 8 9 10 10 12 11 12 13 16 16 15 16 19 20 21 23 22 21 18 13 16 17 16 16 17 21 20 19 14 10 21 19 19 21 22 22 23 24
3 5 8 9 8 8 9 9 11 15 17 16 16 17 18 19 19 20 18 17 17 18 16 15 14 15 14 14 14 16 19 20 18 16 10 16 16 15 17 21 25 25 23
6 8 7 7 6 5 7 8 13 13 13 15 13 12 12 11 12 11 12 12 13 13 12 12 12 12 13 12 13 14 16 19 15 14 11 10 15 8 7 10 14 15 18
11 10 10 11 11 11 11 12 13 12 12 13 12 13 13 13 12 12 11 11 11 10 10 10 10 10 11 11 11 12 15 17 14 10 12 9 7 7 9 8 9 12 13
11 13 14 14 14 14 15 15 15 15 15 15 16 16 16 16 15 14 13 11 10 9 8 8 8 9 9 9 10 11 14 18 15 11 13 12 6 3 3 5 6 10 9
Wind_Direction
246 247 248 241 232 307 248 251 264 273 275 277 279 281 283 283 286 280 280 286 289 292 293 295 294 292 287 282 280 282 280 285 280 275 262 277 275 284 288 286 286 284 280
263 260 270 280 291 251 234 241 258 264 271 275 277 282 286 286 283 286 288 289 294 297 294 293 291 288 290 289 286 283 289 280 288 288 288 283 289 289 291 297 294 285 278
269 275 276 272 242 227 231 248 254 264 269 270 282 292 293 291 291 290 292 291 291 293 294 296 298 297 294 293 289 292 286 279 275 279 286 288 291 296 296 295 299 302 297
195 210 235 242 228 231 236 247 252 262 267 293 295 288 286 290 292 293 294 295 299 302 299 302 300 300 296 298 297 294 290 286 283 281 282 285 296 301 284 277 277 279 280
230 232 251 232 213 229 237 235 241 261 282 283 275 283 287 292 296 303 306 304 305 304 301 302 300 296 296 291 290 294 292 287 283 288 285 286 285 280 279 274 276 274 283
213 217 218 227 241 233 234 234 249 257 283 279 285 288 295 302 301 300 299 309 307 304 306 306 299 295 293 291 289 293 294 290 288 285 285 285 288 291 289 283 282 276 276
212 265 227 243 230 222 236 242 258 262 290 290 293 296 300 304 304 304 301 305 305 305 306 307 303 282 281 279 293 293 291 293 291 288 285 286 289 292 287 281 276 275 272
298 282 255 251 243 252 247 273 292 312 293 298 297 305 299 294 297 302 302 303 304 311 301 302 296 282 282 289 292 291 291 290 292 294 297 298 296 295 289 284 276 265 266
293 262 240 256 253 275 307 307 295 297 301 299 304 300 302 302 303 302 298 298 299 291 291 297 284 294 287 297 291 291 290 291 293 294 296 306 309 308 298 292 285 265 261
249 232 258 298 285 272 281 289 294 296 295 297 298 301 302 302 299 296 298 300 301 290 293 274 281 282 294 292 297 301 296 294 297 298 303 306 307 309 309 308 292 283 278
256 266 275 259 267 274 287 292 296 296 297 299 299 300 303 296 287 293 297 296 302 299 292 286 286 287 287 290 300 303 301 299 297 301 292 293 294 296 299 293 298 289 278
315 254 273 276 278 287 299 304 307 303 305 305 300 304 288 300 301 303 312 320 327 333 330 313 300 305 303 300 296 302 306 307 314 304 297 292 297 290 284 286 292 293 282
265 301 308 304 301 292 316 308 298 295 296 283 290 295 302 317 312 325 333 342 346 341 336 331 323 318 318 338 304 304 307 299 287 279 277 284 284 289 289 288 284 301 274
315 327 313 306 300 289 310 292 290 298 286 305 304 317 318 309 322 345 342 339 337 334 336 334 359 351 311 298 306 306 298 298 298 294 295 291 295 298 291 286 286 301 281
307 310 314 308 306 305 311 312 310 310 309 312 309 329 328 334 341 345 346 342 338 345 349 334 294 314 318 317 317 316 320 321 316 303 293 300 305 295 293 289 291 284 268
307 301 309 303 306 315 306 318 326 327 336 327 321 333 338 337 350 358 357 353 5 7 350 349 344 341 339 340 341 342 353 341 332 327 316 308 314 309 301 297 285 269 239
299 303 299 305 318 330 323 321 324 353 347 342 341 344 347 348 344 346 359 13 8 10 337 349 351 349 349 350 357 354 345 337 332 327 327 329 339 330 323 306 305 237 229
301 299 300 320 342 353 5 9 351 358 359 345 352 342 341 346 339 337 357 15 18 356 333 354 358 357 358 11 11 1 350 338 334 331 333 328 344 338 333 329 305 213 227
317 345 345 7 353 23 52 151 222 318 306 318 322 327 330 329 338 338 342 1 17 357 344 352 355 3 6 12 5 7 355 354 354 353 354 349 348 349 11 346 354 161 194
46 14 41 117 300 11 359 353 357 344 298 298 304 319 331 329 328 331 329 336 346 5 338 357 355 349 359 9 6 4 8 3 360 7 11 17 14 30 43 50 69 176 206
18 23 21 9 341 340 321 328 324 337 328 330 326 325 331 334 325 311 312 329 333 343 346 352 352 342 355 357 360 2 5 4 8 12 12 18 27 56 49 64 66 83 88
7 340 3 3 12 23 8 358 354 343 325 314 321 325 329 328 322 315 313 315 320 329 334 341 350 341 357 0 1 10 10 11 15 24 15 31 31 72 73 71 71 69 75
0 348 345 343 352 354 360 351 321 318 328 323 322 312 311 310 309 306 309 310 313 316 329 336 346 348 355 358 1 6 10 13 16 30 44 47 51 82 86 83 79 71 74
16 18 26 15 11 355 342 328 339 351 345 346 343 334 329 326 325 325 318 324 324 328 335 336 344 348 353 359 5 9 14 10 14 29 43 64 70 99 69 94 89 79 85
48 45 42 39 35 27 15 9 13 16 9 9 10 9 6 1 360 355 348 343 338 338 338 340 344 353 356 0 7 11 15 15 19 39 45 53 90 98 103 98 88 89 94
51 50 49 46 42 37 33 30 29 29 28 26 25 24 21 17 12 6 3 357 350 346 344 347 350 355 3 6 10 15 18 27 35 56 61 41 36 139 107 118 124 117 95
Height
3130 3127 3129 3122 3121 3135 3133 3139 3141 3138 3137 3136 3137 3134 3131 3131 3130 3129 3127 3125 3123 3120 3118 3115 3112 3108 3108 3106 3102 3099 3097 3094 3092 3090 3086 3086 3081 3080 3078 3076 3074 3073 3071
3126 3125 3125 3126 3127 3126 3126 3132 3134 3133 3132 3132 3132 3128 3125 3125 3125 3123 3121 3119 3115 3113 3109 3106 3104 3101 3098 3096 3093 3090 3088 3086 3082 3078 3077 3075 3073 3073 3070 3069 3067 3066 3064
3120 3121 3122 3122 3120 3122 3123 3127 3128 3127 3128 3127 3125 3123 3121 3119 3118 3117 3115 3112 3109 3106 3102 3099 3097 3093 3090 3087 3084 3082 3079 3076 3075 3071 3068 3068 3067 3066 3066 3064 3062 3059 3057
3117 3120 3121 3119 3119 3121 3121 3123 3123 3123 3122 3120 3119 3118 3117 3115 3114 3111 3109 3105 3103 3100 3096 3093 3089 3086 3082 3080 3077 3075 3071 3067 3066 3064 3061 3061 3060 3060 3058 3057 3056 3054 3052
3116 3117 3116 3117 3118 3118 3117 3117 3117 3117 3116 3115 3116 3114 3112 3111 3107 3104 3103 3100 3096 3094 3091 3087 3083 3079 3074 3072 3070 3066 3063 3060 3059 3057 3055 3054 3054 3053 3051 3050 3047 3045 3044
3111 3112 3113 3113 3114 3116 3115 3114 3110 3108 3111 3111 3109 3108 3105 3103 3102 3099 3096 3094 3091 3087 3083 3079 3076 3071 3067 3064 3062 3060 3056 3053 3053 3050 3048 3046 3046 3045 3043 3040 3038 3037 3036
3112 3113 3110 3107 3106 3107 3107 3105 3104 3105 3104 3104 3103 3102 3101 3097 3096 3094 3091 3088 3083 3079 3074 3070 3068 3066 3063 3059 3054 3052 3050 3047 3045 3043 3038 3037 3035 3035 3033 3031 3030 3028 3027
3105 3107 3107 3105 3103 3104 3105 3104 3101 3101 3101 3100 3099 3097 3095 3091 3090 3088 3084 3079 3076 3070 3067 3062 3060 3059 3055 3052 3049 3045 3042 3040 3037 3033 3031 3028 3026 3025 3022 3019 3018 3017 3017
3100 3101 3104 3104 3101 3101 3102 3101 3100 3099 3098 3096 3095 3094 3092 3087 3083 3079 3076 3072 3069 3064 3060 3058 3053 3052 3046 3042 3040 3037 3035 3033 3031 3027 3025 3021 3019 3016 3013 3010 3008 3006 3007
3099 3099 3099 3100 3101 3099 3099 3099 3098 3096 3094 3093 3090 3087 3084 3081 3075 3071 3067 3064 3060 3056 3053 3050 3046 3043 3039 3037 3033 3030 3029 3027 3023 3021 3018 3015 3013 3011 3008 3005 3003 3001 3001
3099 3098 3098 3100 3099 3098 3096 3095 3094 3092 3091 3088 3085 3081 3076 3074 3069 3064 3060 3056 3052 3049 3045 3043 3039 3037 3033 3031 3027 3023 3022 3020 3017 3014 3012 3010 3008 3005 3003 3000 2999 2997 2995
3098 3099 3098 3097 3096 3093 3094 3092 3090 3087 3085 3081 3078 3074 3070 3066 3062 3058 3054 3050 3046 3043 3040 3038 3034 3031 3027 3025 3022 3019 3016 3013 3011 3009 3006 3004 3002 2999 2998 2995 2993 2991 2988
3097 3097 3096 3093 3092 3092 3090 3086 3085 3080 3077 3075 3070 3067 3065 3062 3058 3054 3050 3047 3042 3039 3037 3032 3030 3027 3024 3022 3018 3011 3009 3007 3004 3003 3000 2998 2995 2993 2990 2987 2986 2983 2981
3094 3093 3092 3091 3089 3086 3084 3078 3075 3073 3069 3068 3067 3063 3061 3060 3057 3053 3050 3045 3042 3038 3034 3030 3028 3025 3021 3016 3013 3008 3005 3002 2999 2997 2993 2990 2988 2986 2982 2980 2978 2976 2974
3091 3089 3088 3085 3083 3080 3076 3074 3071 3069 3068 3067 3063 3060 3059 3057 3056 3053 3048 3044 3039 3035 3030 3028 3024 3021 3017 3013 3009 3005 3001 2997 2994 2990 2986 2983 2982 2979 2976 2974 2971 2970 2969
3087 3086 3083 3081 3078 3076 3073 3069 3068 3065 3064 3063 3061 3059 3058 3057 3054 3051 3047 3043 3037 3032 3028 3026 3021 3017 3013 3009 3004 3001 2997 2995 2991 2986 2982 2980 2978 2974 2971 2967 2964 2963 2964
3083 3081 3078 3076 3074 3074 3071 3071 3066 3064 3062 3062 3060 3058 3057 3055 3053 3051 3046 3039 3036 3034 3029 3024 3020 3015 3011 3006 3003 3000 2997 2994 2990 2985 2981 2978 2974 2970 2965 2962 2960 2959 2960
3078 3077 3075 3073 3073 3074 3072 3070 3066 3063 3061 3060 3059 3058 3056 3054 3052 3049 3045 3041 3041 3038 3030 3024 3019 3015 3010 3006 3003 3000 2996 2992 2988 2983 2979 2976 2971 2966 2961 2957 2956 2956 2959
3075 3076 3073 3072 3072 3071 3070 3069 3068 3066 3063 3060 3057 3055 3054 3052 3049 3046 3043 3040 3039 3037 3031 3026 3020 3015 3010 3006 3003 3000 2996 2992 2987 2983 2980 2976 2969 2964 2960 2958 2957 2958 2959
3076 3077 3073 3073 3071 3070 3070 3069 3067 3065 3062 3060 3057 3054 3052 3049 3047 3045 3042 3039 3037 3034 3030 3026 3022 3016 3012 3008 3005 3001 2997 2992 2987 2983 2981 2976 2970 2965 2962 2959 2958 2959 2960
3078 3075 3072 3071 3072 3071 3068 3067 3066 3063 3060 3058 3055 3053 3051 3049 3047 3044 3043 3038 3035 3032 3029 3025 3022 3018 3013 3010 3006 3002 2997 2993 2989 2985 2982 2978 2973 2969 2966 2963 2960 2959 2959
3078 3075 3073 3072 3070 3069 3067 3065 3063 3061 3058 3055 3053 3050 3049 3048 3046 3043 3040 3037 3034 3031 3027 3024 3021 3018 3014 3011 3008 3004 2999 2995 2991 2987 2984 2982 2978 2975 2973 2971 2969 2968 2965
3078 3076 3073 3072 3070 3068 3066 3064 3061 3058 3056 3053 3050 3047 3045 3043 3041 3039 3037 3034 3031 3028 3025 3023 3021 3018 3015 3012 3008 3005 3001 2997 2993 2990 2988 2986 2984 2983 2981 2980 2978 2977 2976
3078 3075 3073 3071 3069 3067 3064 3062 3059 3058 3054 3051 3048 3046 3043 3040 3038 3035 3033 3030 3028 3026 3024 3022 3020 3017 3015 3012 3009 3006 3003 2999 2995 2993 2991 2990 2989 2989 2988 2988 2987 2986 2986
3079 3077 3074 3072 3070 3068 3065 3063 3061 3058 3055 3052 3049 3046 3043 3040 3037 3034 3032 3030 3027 3025 3023 3021 3019 3017 3015 3013 3010 3008 3005 3001 2997 2995 2994 2992 2992 2992 2992 2992 2992 2993 2993
3081 3079 3077 3075 3072 3070 3067 3065 3062 3060 3057 3054 3050 3047 3043 3040 3037 3034 3031 3028 3026 3024 3022 3021 3019 3017 3015 3014 3012 3009 3007 3003 2999 2997 2997 2996 2995 2994 2995 2995 2995 2997 2997